Location: Newark
(41.0833°N, 9.3833°E)
Time: 12:55:13
(UTC+00:00)

Hubble Space Telescope - Pass Details

Date: 07 April 2020
Orbit: 536 x 540 km, 28.5° (Epoch: 01 June)

Event Time Altitude Azimuth Distance (km) Brightness Sun altitude
Rises 19:15:49 0° 223° (SW) 2,663 4.6 -15.5°
Reaches altitude 10° 19:19:30 10° 189° (S) 1,775 3.2 -16.1°
Enters shadow 19:20:24 11° 176° (S) 1,694 3.0 -16.3°
